| time (UTC) | temp F | wind direction | speed MPH | gust MPH | rain 1hr in | rain 24hr in | rain mn in | humidity % | barometer mb |
| 20260902143041 | 65 | 0 | 0.0 | 0.0 | 0.00 | 0.01 | 0.00 | 85 | 1023.3 |
| 20260902141535 | 63 | 0 | 0.0 | 2.0 | 0.00 | 0.01 | 0.00 | 85 | 1023.1 |
| 20260902140040 | 62 | 0 | 0.0 | 0.0 | 0.00 | 0.01 | 0.00 | 88 | 1023.1 |
| 20260902134539 | 62 | 0 | 0.0 | 0.0 | 0.00 | 0.05 | 0.00 | 85 | 1022.8 |
| 20260902133042 | 62 | 0 | 0.0 | 0.0 | 0.00 | 0.05 | 0.00 | 85 | 1022.6 |
| 20260902131536 | 61 | 0 | 0.0 | 0.0 | 0.00 | 0.05 | 0.00 | 89 | 1022.4 |
| 20260902130039 | 61 | 0 | 0.0 | 0.0 | 0.00 | 0.05 | 0.00 | 89 | 1022.4 |
| 20260902124536 | 60 | 0 | 0.0 | 0.0 | 0.00 | 0.21 | 0.00 | 95 | 1022.7 |
| 20260902123035 | 60 | 0 | 0.0 | 0.0 | 0.00 | 0.21 | 0.00 | 96 | 1022.7 |
| 20260902121539 | 59 | 0 | 0.0 | 0.0 | 0.00 | 0.21 | 0.00 | 96 | 1022.9 |
| 20260902120035 | 58 | 0 | 0.0 | 0.0 | 0.00 | 0.21 | 0.00 | 97 | 1022.6 |
| 20260902114540 | 58 | 0 | 0.0 | 0.0 | 0.00 | 0.36 | 0.00 | 99 | 1022.7 |
| 20260902113043 | 58 | 0 | 0.0 | 0.0 | 0.00 | 0.36 | 0.00 | 99 | 1022.7 |
| 20260902111538 | 57 | 0 | 0.0 | 0.0 | 0.00 | 0.36 | 0.00 | 99 | 1022.9 |
| 20260902110041 | 57 | 0 | 0.0 | 0.0 | 0.00 | 0.36 | 0.00 | 98 | 1022.9 |
| 20260902104546 | 57 | 0 | 0.0 | 0.0 | 0.00 | 0.38 | 0.00 | 98 | 1022.6 |
| 20260902103045 | 57 | 0 | 0.0 | 0.0 | 0.00 | 0.38 | 0.00 | 98 | 1022.5 |
| 20260902101544 | 57 | 0 | 0.0 | 0.0 | 0.00 | 0.38 | 0.00 | 98 | 1022.3 |
| 20260902100042 | 57 | 0 | 0.0 | 0.0 | 0.00 | 0.38 | 0.00 | 98 | 1022.1 |
| 20260902094537 | 57 | 0 | 0.0 | 0.0 | 0.00 | 0.38 | 0.00 | 98 | 1022.2 |
| 20260902093043 | 57 | 0 | 0.0 | 0.0 | 0.00 | 0.38 | 0.00 | 98 | 1022.2 |
| 20260902091550 | 57 | 0 | 0.0 | 0.0 | 0.00 | 0.38 | 0.00 | 98 | 1022.1 |
| 20260902090041 | 57 | 0 | 0.0 | 0.0 | 0.00 | 0.38 | 0.00 | 98 | 1021.9 |
| 20260902084549 | 57 | 0 | 0.0 | 0.0 | 0.00 | 0.38 | 0.00 | 98 | 1022.0 |
| 20260902083048 | 57 | 0 | 0.0 | 0.0 | 0.00 | 0.38 | 0.00 | 98 | 1022.1 |
| 20260902081540 | 58 | 0 | 0.0 | 0.0 | 0.00 | 0.38 | 0.00 | 97 | 1022.1 |
| 20260902080038 | 58 | 0 | 0.0 | 0.0 | 0.00 | 0.38 | 0.00 | 98 | 1022.1 |
| 20260902074538 | 58 | 0 | 0.0 | 0.0 | 0.00 | 0.38 | 0.00 | 97 | 1022.1 |
| 20260902073040 | 58 | 0 | 0.0 | 0.0 | 0.00 | 0.38 | 0.00 | 97 | 1022.2 |
| 20260902071539 | 58 | 0 | 0.0 | 0.0 | 0.00 | 0.38 | 0.00 | 97 | 1022.2 |
| 20260902070038 | 58 | 0 | 0.0 | 0.0 | 0.00 | 0.38 | 0.00 | 97 | 1022.4 |
| 20260902064541 | 58 | 0 | 0.0 | 0.0 | 0.00 | 0.38 | 0.00 | 97 | 1022.2 |
| 20260902063045 | 58 | 0 | 0.0 | 0.0 | 0.00 | 0.38 | 0.00 | 97 | 1022.1 |
| 20260902061547 | 58 | 0 | 0.0 | 0.0 | 0.00 | 0.38 | 0.00 | 97 | 1022.0 |
| 20260902060041 | 58 | 0 | 0.0 | 0.0 | 0.00 | 0.38 | 0.00 | 97 | 1021.7 |
| 20260902054541 | 58 | 0 | 0.0 | 0.0 | 0.00 | 0.38 | 0.00 | 97 | 1021.7 |
| 20260902053039 | 59 | 0 | 0.0 | 0.0 | 0.00 | 0.38 | 0.00 | 98 | 1021.4 |
| 20260902051537 | 59 | 0 | 0.0 | 0.0 | 0.00 | 0.38 | 0.00 | 98 | 1021.5 |
| 20260902044556 | 59 | 0 | 0.0 | 0.0 | 0.00 | 0.38 | 0.00 | 98 | 1021.1 |
| 20260902043037 | 60 | 0 | 0.0 | 0.0 | 0.00 | 0.38 | 0.00 | 98 | 1020.9 |
| 20260902041541 | 60 | 0 | 0.0 | 0.0 | 0.00 | 0.38 | 0.00 | 98 | 1020.6 |
| 20260902040050 | 60 | 0 | 0.0 | 0.0 | 0.00 | 0.38 | 0.00 | 98 | 1020.5 |
| 20260902034541 | 60 | 0 | 0.0 | 0.0 | 0.00 | 0.38 | 0.38 | 98 | 1020.5 |
| 20260902033036 | 60 | 0 | 0.0 | 0.0 | 0.00 | 0.38 | 0.38 | 98 | 1020.6 |
| 20260902031540 | 60 | 0 | 0.0 | 0.0 | 0.00 | 0.38 | 0.38 | 98 | 1020.6 |
| 20260902030040 | 60 | 0 | 0.0 | 0.0 | 0.00 | 0.38 | 0.38 | 97 | 1020.4 |
| 20260902024540 | 60 | 0 | 0.0 | 0.0 | 0.00 | 0.38 | 0.38 | 98 | 1020.2 |
| 20260902023038 | 60 | 0 | 0.0 | 0.0 | 0.00 | 0.38 | 0.38 | 98 | 1020.1 |
| 20260902021549 | 60 | 0 | 0.0 | 0.0 | 0.00 | 0.38 | 0.38 | 98 | 1020.3 |
| 20260902020040 | 60 | 0 | 0.0 | 0.0 | 0.00 | 0.38 | 0.38 | 98 | 1020.2 |
| 20260902014541 | 60 | 0 | 0.0 | 0.0 | 0.00 | 0.38 | 0.38 | 97 | 1020.2 |
| 20260902013040 | 60 | 0 | 0.0 | 0.0 | 0.00 | 0.38 | 0.38 | 97 | 1020.3 |
| 20260902011539 | 60 | 0 | 0.0 | 0.0 | 0.00 | 0.38 | 0.38 | 97 | 1020.4 |
| 20260902010043 | 61 | 0 | 0.0 | 0.0 | 0.00 | 0.38 | 0.38 | 96 | 1020.3 |
| 20260902004541 | 61 | 0 | 0.0 | 0.0 | 0.00 | 0.38 | 0.38 | 96 | 1020.1 |
| 20260902003042 | 61 | 0 | 0.0 | 0.0 | 0.00 | 0.38 | 0.38 | 97 | 1020.0 |
| 20260902001536 | 61 | 0 | 0.0 | 0.0 | 0.00 | 0.38 | 0.38 | 96 | 1019.6 |
| 20260902000040 | 61 | 0 | 0.0 | 0.0 | 0.00 | 0.38 | 0.38 | 97 | 1019.6 |
| 20260901234540 | 61 | 0 | 0.0 | 0.0 | 0.00 | 0.38 | 0.38 | 97 | 1019.5 |
| 20260901233043 | 61 | 0 | 0.0 | 0.0 | 0.00 | 0.38 | 0.38 | 97 | 1019.5 |
| 20260901231541 | 61 | 0 | 0.0 | 0.0 | 0.00 | 0.38 | 0.38 | 97 | 1019.5 |
| 20260901230039 | 61 | 0 | 0.0 | 0.0 | 0.00 | 0.38 | 0.38 | 97 | 1019.4 |
| 20260901224538 | 61 | 0 | 0.0 | 0.0 | 0.00 | 0.38 | 0.38 | 97 | 1019.5 |
| 20260901223046 | 62 | 0 | 0.0 | 0.0 | 0.00 | 0.38 | 0.38 | 96 | 1019.5 |
| 20260901221540 | 62 | 0 | 0.0 | 0.0 | 0.00 | 0.38 | 0.38 | 96 | 1019.4 |
| 20260901220041 | 62 | 0 | 0.0 | 0.0 | 0.00 | 0.38 | 0.38 | 95 | 1019.3 |
| 20260901214538 | 63 | 0 | 0.0 | 0.0 | 0.00 | 0.38 | 0.38 | 94 | 1019.1 |
| 20260901213102 | 63 | 0 | 0.0 | 0.0 | 0.00 | 0.38 | 0.38 | 94 | 1019.1 |
| 20260901211540 | 63 | 0 | 0.0 | 0.0 | 0.00 | 0.38 | 0.38 | 93 | 1019.1 |
| 20260901210042 | 64 | 0 | 0.0 | 0.0 | 0.00 | 0.38 | 0.38 | 92 | 1019.1 |
| 20260901204547 | 64 | 0 | 0.0 | 0.0 | 0.00 | 0.38 | 0.38 | 93 | 1018.8 |
| 20260901203040 | 63 | 0 | 0.0 | 0.0 | 0.00 | 0.38 | 0.38 | 92 | 1018.6 |
| 20260901201539 | 63 | 0 | 0.0 | 0.0 | 0.00 | 0.38 | 0.38 | 92 | 1018.7 |
| 20260901200042 | 63 | 0 | 0.0 | 0.0 | 0.00 | 0.38 | 0.38 | 94 | 1018.7 |
| 20260901194541 | 63 | 0 | 0.0 | 0.0 | 0.00 | 0.38 | 0.38 | 94 | 1018.6 |
| 20260901193042 | 63 | 0 | 0.0 | 0.0 | 0.00 | 0.38 | 0.38 | 94 | 1018.7 |
| 20260901191541 | 62 | 0 | 0.0 | 0.0 | 0.00 | 0.38 | 0.38 | 96 | 1018.7 |
| 20260901190039 | 62 | 0 | 0.0 | 0.0 | 0.00 | 0.38 | 0.38 | 97 | 1018.9 |
| 20260901184545 | 62 | 0 | 0.0 | 0.0 | 0.00 | 0.38 | 0.38 | 97 | 1019.0 |
| 20260901183041 | 62 | 0 | 0.0 | 0.0 | 0.00 | 0.38 | 0.38 | 98 | 1018.9 |
| 20260901181538 | 61 | 0 | 0.0 | 0.0 | 0.00 | 0.38 | 0.38 | 97 | 1018.7 |
| 20260901180039 | 61 | 0 | 0.0 | 0.0 | 0.00 | 0.38 | 0.38 | 97 | 1018.8 |
| 20260901174538 | 61 | 0 | 0.0 | 0.0 | 0.00 | 0.38 | 0.38 | 97 | 1018.7 |
| 20260901173042 | 60 | 0 | 0.0 | 0.0 | 0.00 | 0.38 | 0.38 | 98 | 1018.5 |
| 20260901171546 | 60 | 0 | 0.0 | 0.0 | 0.01 | 0.38 | 0.38 | 97 | 1018.6 |
| 20260901170043 | 59 | 0 | 0.0 | 0.0 | 0.01 | 0.38 | 0.38 | 98 | 1018.5 |
| 20260901164545 | 59 | 0 | 0.0 | 0.0 | 0.01 | 0.38 | 0.38 | 97 | 1018.0 |
| 20260901163039 | 58 | 0 | 0.0 | 0.0 | 0.01 | 0.38 | 0.38 | 97 | 1018.2 |
| 20260901161539 | 58 | 0 | 0.0 | 0.0 | 0.00 | 0.37 | 0.37 | 97 | 1018.8 |
| 20260901160041 | 59 | 0 | 0.0 | 0.0 | 0.00 | 0.37 | 0.37 | 96 | 1018.9 |
| 20260901154542 | 59 | 0 | 0.0 | 0.0 | 0.00 | 0.37 | 0.37 | 96 | 1018.9 |
| 20260901153051 | 60 | 0 | 0.0 | 0.0 | 0.00 | 0.37 | 0.37 | 98 | 1019.1 |
| 20260901151542 | 60 | 0 | 0.0 | 0.0 | 0.00 | 0.37 | 0.37 | 97 | 1019.0 |
| 20260901150039 | 60 | 0 | 0.0 | 0.0 | 0.00 | 0.37 | 0.37 | 96 | 1018.6 |
| 20260901144541 | 60 | 0 | 0.0 | 0.0 | 0.00 | 0.37 | 0.37 | 98 | 1018.4 |